Theta_e
342 343 343 343 342 341 341 340 340 340 339 340 340 339 340 339 336 333 335 336 335 336 337 337 337 337 337 337 338 339 339 339 338 338 338 337 337 337 337 336 336 336 336 336 336 337 337 336 337 336 336 336 335 334 333 332 334 335 335 333 333 333 332 332 332 332 332 333 333 333 334 334 334 333 333 333 333 332 332 331 331 331 329 328 330
340 342 342 342 341 341 340 340 340 340 340 341 342 341 341 340 339 337 336 336 336 337 337 337 337 337 337 338 338 339 339 339 338 338 338 337 336 335 336 335 336 336 336 336 336 337 336 336 336 335 336 337 338 337 336 335 334 335 335 333 333 333 333 333 332 332 333 333 334 333 333 334 334 333 333 332 333 332 331 331 331 331 330 329 330
335 337 339 340 340 340 340 340 340 340 340 341 341 340 339 340 339 338 336 335 336 336 336 337 337 337 338 338 339 339 339 338 338 339 338 338 336 335 334 334 334 335 335 335 336 336 336 336 336 334 335 337 338 337 337 337 336 335 334 333 333 333 333 333 332 333 334 333 333 333 333 333 333 333 332 332 332 331 331 332 332 331 330 330 330
332 332 334 336 336 338 338 339 339 339 339 338 338 337 337 337 337 336 336 335 336 335 335 336 337 337 337 337 337 338 338 337 338 338 337 337 337 336 335 334 334 333 334 335 335 336 336 336 335 334 335 336 337 337 337 337 337 336 334 333 333 333 333 333 333 334 333 333 333 333 333 333 332 332 332 332 331 332 332 332 331 331 331 330 329
329 329 330 331 332 333 334 334 335 335 335 334 334 334 334 335 335 335 335 335 335 335 335 336 337 337 337 337 336 336 337 337 337 337 337 336 336 336 335 334 334 334 334 334 334 335 335 335 335 335 334 335 336 336 336 336 336 335 335 334 334 334 334 334 334 334 333 333 332 332 332 331 332 332 333 332 331 331 332 331 331 331 331 330 328
324 324 325 327 328 328 329 329 331 332 332 332 332 332 333 333 334 334 334 334 335 335 336 336 337 336 337 337 336 336 336 336 336 336 336 336 336 335 335 335 334 334 335 334 334 334 334 334 335 335 334 335 336 337 336 335 335 335 335 335 334 335 335 334 334 334 333 333 333 333 333 331 332 333 332 332 331 331 331 331 331 331 331 330 328
322 322 322 324 324 325 326 326 327 328 329 330 331 331 332 332 332 333 334 335 335 335 335 336 336 336 336 336 336 336 336 337 336 336 336 336 335 335 335 335 334 334 334 335 334 334 333 333 334 335 335 334 336 336 336 335 335 335 335 335 334 333 334 333 334 334 333 332 333 334 333 331 332 332 332 331 331 331 331 331 331 331 331 331 329
319 319 320 321 322 322 323 324 324 325 326 328 329 330 332 332 332 332 333 334 334 334 335 336 336 336 336 336 336 337 337 336 336 336 335 334 334 335 334 334 334 334 333 333 333 333 333 333 333 334 335 335 335 335 335 335 334 334 334 334 334 333 332 333 334 333 332 332 333 333 333 332 332 332 333 332 331 330 331 331 331 331 331 331 331
317 317 318 319 320 321 322 323 323 323 324 325 326 328 329 331 332 332 333 333 333 334 334 335 335 335 335 335 335 336 336 335 335 334 334 334 334 334 334 334 333 333 332 331 331 331 332 332 332 333 334 334 335 334 335 334 334 334 333 334 335 334 333 333 333 332 332 333 333 333 333 332 332 332 333 333 331 330 330 331 331 332 331 331 332
317 317 318 319 319 321 321 322 322 322 323 323 324 325 326 328 329 331 331 332 333 333 334 334 334 334 334 335 335 336 335 335 334 333 333 333 333 334 334 334 333 333 331 330 330 330 330 331 331 332 333 334 334 334 334 334 333 334 333 334 334 334 334 333 332 332 332 332 332 333 333 333 332 333 333 333 333 332 331 331 332 332 331 331 332
316 318 319 319 319 320 321 321 321 321 321 322 322 323 324 324 325 327 327 328 330 332 332 333 333 333 333 333 334 334 334 334 333 333 333 333 334 334 334 334 333 333 332 330 330 330 329 329 330 331 332 333 334 334 334 334 334 334 334 334 334 333 333 332 332 333 332 331 332 333 333 333 332 333 333 333 333 333 331 331 331 330 329 331 331
316 316 318 319 319 319 319 320 320 319 319 320 321 321 321 322 322 324 324 325 327 328 330 331 332 332 331 331 332 332 332 333 333 333 333 333 333 333 334 333 333 334 333 331 331 330 330 330 331 331 332 333 334 333 333 333 333 334 334 334 334 333 333 333 333 334 333 331 331 333 333 332 332 332 331 331 332 332 331 331 331 329 329 330 330
315 315 316 317 318 318 317 318 318 318 318 318 319 319 320 320 321 322 323 323 324 325 327 329 330 331 330 331 331 331 331 332 332 332 332 333 332 333 334 334 334 334 333 333 332 332 331 331 331 332 333 333 334 333 333 333 333 333 334 334 334 333 333 333 333 333 333 332 332 334 333 332 332 331 331 331 331 332 331 331 330 329 329 330 329
314 314 314 315 316 316 315 315 315 316 316 316 317 317 318 319 319 320 321 322 323 324 325 327 328 330 330 331 331 331 331 331 332 332 332 332 332 333 334 334 334 334 333 333 333 333 332 331 331 332 333 333 333 333 333 333 333 333 333 334 333 334 333 333 334 334 335 334 332 333 333 332 332 331 331 332 331 332 332 331 330 329 330 330 329
313 312 313 314 314 314 313 314 314 314 314 314 315 315 316 317 317 317 318 320 321 322 323 324 326 328 329 329 330 331 331 331 331 332 332 332 332 332 333 334 335 334 334 333 333 333 333 332 332 332 332 332 332 333 333 333 333 332 333 333 333 333 333 333 335 335 334 334 331 332 333 333 332 331 331 332 331 332 331 330 330 329 329 330 329
313 312 313 313 313 312 312 313 313 312 313 313 313 314 314 314 315 316 316 316 317 318 320 321 323 325 327 327 328 330 330 331 331 331 332 332 332 332 332 333 334 334 334 333 333 333 333 332 332 332 332 333 332 332 333 333 332 332 332 332 333 333 333 333 334 334 334 333 331 332 334 333 332 332 332 332 331 331 331 330 330 329 329 329 329
312 312 313 313 312 311 312 312 312 312 312 312 313 313 313 312 313 314 315 314 315 316 318 319 320 322 324 326 327 328 329 330 330 331 332 332 332 332 332 332 333 333 334 333 332 333 333 333 332 331 332 332 332 332 333 333 333 332 332 332 333 333 332 333 334 334 334 333 332 332 333 333 333 334 333 332 332 331 331 331 330 330 329 329 329
312 312 312 312 311 311 312 312 312 312 312 312 313 313 313 312 313 313 314 314 314 315 316 318 319 320 322 323 325 326 328 329 330 330 331 331 332 332 332 332 332 332 332 332 332 333 333 332 332 331 331 331 332 332 333 333 333 333 332 332 333 333 333 332 333 334 334 334 333 331 332 332 333 332 332 332 332 331 332 331 331 331 330 330 329
311 310 310 311 310 311 311 311 311 311 311 312 312 313 313 313 313 313 314 314 314 314 315 316 317 318 319 320 322 324 326 328 329 329 330 330 331 331 331 332 332 332 332 333 333 333 332 332 332 332 331 331 332 332 332 333 333 332 332 331 332 332 332 332 333 334 334 334 334 333 332 332 331 331 331 331 331 330 331 331 331 331 330 330 330
309 308 309 309 309 310 310 310 311 310 311 311 312 312 313 312 313 313 313 313 313 314 315 315 316 317 317 318 319 321 323 325 327 328 329 330 330 330 331 331 331 332 332 332 333 332 332 331 331 331 331 331 331 331 332 332 332 332 332 332 332 332 333 332 333 333 333 334 334 334 333 332 332 331 330 331 331 330 331 332 331 331 331 331 330
308 307 308 308 309 309 309 309 310 310 310 310 311 311 312 312 312 313 313 313 313 314 314 314 315 315 315 316 317 318 319 321 323 325 328 329 330 330 330 330 331 331 331 331 332 332 332 332 332 332 332 331 331 331 332 332 332 332 332 332 332 333 333 333 332 332 332 333 334 333 333 333 332 331 330 331 332 331 332 332 332 331 331 331 331
307 307 307 308 308 308 308 309 310 310 310 310 310 311 311 312 312 312 312 312 312 313 313 313 314 314 314 315 315 316 317 318 320 321 324 326 328 329 330 330 330 331 331 331 331 332 332 332 332 332 332 332 331 331 332 332 332 332 332 332 332 333 333 332 332 331 330 331 333 333 333 333 331 330 330 330 332 332 332 332 332 331 332 331 331
306 307 307 307 307 307 308 309 309 310 311 310 310 310 311 311 311 311 312 312 312 312 312 313 313 313 314 314 314 315 316 317 318 318 320 321 323 326 328 330 330 331 331 331 332 332 332 333 332 332 333 332 332 332 332 332 332 332 331 331 332 333 333 332 332 331 330 331 332 333 334 333 331 330 331 331 331 332 331 332 331 331 332 331 331
306 306 307 307 307 308 308 309 310 311 311 310 309 309 310 310 310 310 311 311 311 311 312 312 312 313 313 313 313 314 315 315 316 317 317 318 320 322 325 328 330 330 330 331 332 332 332 333 333 332 332 332 332 332 332 332 332 332 332 332 332 333 333 332 332 332 332 331 332 333 333 332 330 330 331 331 331 331 332 332 331 331 331 331 331
305 305 307 307 308 307 308 309 310 310 309 309 309 309 309 309 309 310 310 310 310 311 312 312 311 312 313 313 313 313 313 314 314 315 316 317 318 320 322 325 327 329 330 330 331 332 332 332 332 332 332 331 331 332 332 332 332 331 332 332 332 333 333 333 332 331 331 330 330 330 330 330 330 331 332 332 331 332 332 331 331 331 330 330 331
304 305 306 307 308 308 308 308 308 308 307 308 308 308 308 309 309 309 309 310 310 310 311 311 311 312 312 312 312 312 312 313 313 314 315 316 317 319 321 324 325 327 329 330 330 331 331 331 332 332 331 330 330 331 332 332 332 331 332 332 332 333 333 332 331 330 330 331 331 331 330 330 331 332 331 332 332 332 333 331 331 331 330 330 331
303 304 305 307 308 308 308 307 306 306 306 307 307 307 307 308 308 308 308 308 309 309 310 310 310 311 311 311 311 311 311 312 312 313 313 314 316 317 319 322 324 326 327 329 330 330 331 331 331 332 331 331 331 332 332 332 331 331 332 332 332 331 332 332 331 329 329 331 332 331 330 329 331 332 332 332 332 332 332 332 331 331 330 329 330
303 303 303 305 307 308 307 306 306 306 306 306 306 306 306 307 307 307 307 308 308 309 309 310 310 310 310 310 310 310 311 311 311 311 312 313 314 315 317 320 323 325 326 327 328 329 330 330 331 331 331 331 331 332 333 332 331 331 332 332 331 330 332 333 331 329 330 331 331 331 330 329 330 332 332 332 332 332 332 331 331 330 329 329 330
303 303 303 304 305 306 306 306 306 306 305 306 306 305 306 306 306 306 306 307 307 308 309 309 309 309 309 309 309 310 310 310 310 310 310 311 312 313 314 316 319 322 325 326 327 328 329 329 330 330 330 330 330 331 332 332 331 332 332 332 332 333 333 331 330 331 333 333 333 332 331 330 330 330 331 331 332 331 330 330 330 330 330 330 330
303 304 305 305 305 305 305 305 305 305 305 306 306 306 306 305 306 306 306 307 307 308 308 309 309 309 309 309 308 309 309 309 309 309 309 310 310 311 311 312 314 317 321 324 326 327 327 328 329 329 330 330 329 329 331 331 331 332 332 332 333 333 331 329 330 333 333 333 333 332 331 331 331 330 330 331 331 330 329 330 329 329 329 329 328
303 303 304 305 305 305 305 305 305 305 305 305 305 305 305 305 306 305 306 306 307 307 308 308 308 308 308 308 308 308 308 308 308 308 308 308 308 308 309 310 311 312 315 318 322 325 326 327 328 328 329 329 329 329 330 330 331 331 331 332 332 331 330 331 332 333 333 333 333 332 332 332 331 331 330 330 330 330 330 330 330 329 329 329 328
303 303 303 304 305 304 305 305 304 304 304 304 305 305 305 305 305 305 305 306 307 307 308 308 308 308 308 307 307 307 307 307 308 307 307 307 307 307 307 308 309 310 311 313 316 320 324 326 326 327 327 328 328 328 328 329 330 330 330 331 331 330 331 333 333 331 331 332 332 332 332 332 331 330 330 330 330 329 329 329 329 330 330 330 329
302 303 303 304 304 304 304 304 304 304 304 304 304 305 305 305 305 305 305 306 306 307 307 307 307 307 307 307 307 307 307 307 307 306 306 306 306 306 306 306 307 308 308 309 310 314 319 322 324 326 327 326 327 327 327 328 329 328 329 330 330 330 331 332 331 330 330 331 332 331 331 331 330 329 330 330 329 328 328 328 328 329 329 329 329
302 303 304 304 304 303 303 303 303 304 303 304 304 304 304 304 305 305 305 305 306 306 306 306 307 307 307 307 306 306 306 306 306 306 306 306 305 305 305 305 306 306 306 306 307 309 313 316 319 322 325 326 326 326 326 327 327 327 328 329 328 329 331 330 330 330 330 331 331 331 331 331 329 328 329 330 328 327 327 327 328 328 327 327 327
302 303 304 303 303 303 303 303 303 303 303 304 304 304 304 304 304 305 305 305 305 306 306 306 306 306 306 306 306 306 306 306 306 305 305 305 305 304 304 304 304 304 304 304 304 305 307 310 313 315 318 321 323 324 324 325 325 326 327 327 327 328 330 330 329 329 330 330 331 330 329 328 328 328 328 328 327 327 327 327 327 326 323 322 324
303 303 303 303 303 303 303 303 302 302 303 303 304 304 304 304 304 304 304 304 305 305 305 305 305 306 306 305 305 306 305 305 305 305 305 304 304 304 303 303 303 303 303 303 303 303 303 305 308 310 312 313 316 319 321 322 323 325 326 326 326 326 327 328 328 328 328 328 328 328 325 325 327 327 325 324 325 326 326 325 324 322 319 319 321
302 302 302 302 302 302 302 302 302 302 302 303 303 303 304 304 304 304 304 304 304 304 305 305 305 305 305 305 305 305 305 305 305 304 304 304 303 303 302 302 302 302 301 301 301 301 301 301 303 305 307 308 310 313 316 318 322 324 324 324 324 324 325 326 326 326 325 325 325 326 326 326 326 325 322 323 324 325 324 323 322 319 317 316 316
302 302 302 302 302 302 302 301 301 302 302 302 302 302 303 303 303 304 303 303 303 303 304 304 304 304 304 304 304 304 305 305 304 304 304 303 303 302 302 301 301 301 300 300 300 300 300 300 300 301 303 305 307 309 311 315 319 321 322 322 321 321 322 324 323 322 322 323 323 324 325 325 324 322 322 323 323 323 322 321 320 318 316 314 311
302 302 302 301 301 301 301 302 301 301 302 302 302 302 302 303 303 303 303 303 303 303 303 303 303 303 304 304 304 304 304 304 304 304 304 303 303 302 301 301 301 300 300 300 300 299 299 299 299 299 300 302 304 306 307 310 315 317 318 319 319 318 319 320 319 318 318 319 319 320 322 323 322 322 322 321 320 320 321 320 318 317 315 313 311
301 301 301 301 301 301 301 301 301 301 302 302 302 302 302 302 302 302 303 303 303 303 302 302 302 302 303 303 303 304 304 304 304 304 304 303 303 302 301 301 300 300 300 299 299 299 299 298 298 298 299 299 301 303 304 307 310 313 315 316 316 314 314 315 315 314 313 314 314 316 317 318 319 319 318 317 316 317 318 318 317 316 314 313 311
301 301 301 301 301 301 301 301 301 301 301 301 301 302 302 301 302 302 302 302 302 302 302 302 302 302 302 302 302 303 303 304 304 304 304 303 303 302 302 301 300 300 300 299 299 299 299 299 298 298 298 298 299 301 302 304 307 311 312 312 312 311 311 311 311 310 310 311 312 312 311 312 315 315 313 313 313 314 315 315 315 314 313 311 310
301 301 301 301 301 301 301 301 301 300 301 301 301 301 301 301 301 301 301 302 302 302 302 302 302 302 302 302 302 302 302 303 303 303 303 303 303 302 302 301 301 300 300 300 299 299 299 299 299 298 298 298 299 300 300 301 304 308 309 310 309 308 308 310 309 307 307 308 309 308 307 308 311 311 310 310 311 312 313 313 313 312 311 309 307
301 301 301 301 301 301 301 301 300 300 301 301 301 300 301 300 300 301 301 301 301 301 301 301 302 301 301 301 301 301 302 302 302 302 302 302 302 302 302 301 301 300 300 300 300 299 299 299 299 299 298 297 297 299 299 299 301 305 307 308 308 307 307 309 307 304 303 303 305 305 305 307 309 309 309 310 310 310 312 312 311 309 307 307 307
301 300 300 300 301 301 301 301 301 301 300 300 300 300 300 300 300 300 300 300 301 301 301 301 301 301 301 301 301 301 301 301 301 301 301 301 301 301 301 301 301 300 300 300 300 299 299 299 299 299 298 297 297 297 298 297 299 301 303 305 305 305 306 307 305 302 300 301 301 302 304 306 307 308 308 308 308 308 308 308 307 306 306 307 308
300 300 300 300 300 301 301 301 300 300 300 300 300 300 300 300 300 299 299 300 300 300 300 300 300 301 301 301 301 301 301 301 301 301 301 301 300 300 300 301 301 300 300 300 300 299 299 299 299 299 298 297 297 297 297 297 298 299 301 302 303 303 303 304 302 300 299 300 301 301 302 303 304 304 305 305 305 304 304 304 305 305 306 307 308
300 300 300 300 300 300 300 300 300 300 300 300 300 300 300 299 299 299 299 299 299 300 300 300 300 300 300 300 301 301 301 301 301 300 300 300 300 300 300 300 300 300 300 300 299 299 299 299 299 299 298 298 298 297 297 297 297 298 299 300 301 301 301 301 300 299 299 300 301 302 303 303 303 303 303 303 303 303 303 303 304 304 305 305 306
299 299 299 299 300 300 300 300 300 300 300 300 300 300 299 299 299 299 299 299 299 299 299 300 300 300 300 300 300 301 301 301 301 301 300 300 300 300 299 298 299 299 300 300 299 299 299 298 298 297 297 297 297 297 297 297 298 298 299 299 299 299 299 299 299 299 299 299 300 301 301 302 302 303 303 303 303 303 303 303 303 303 303 303 303
298 297 297 298 299 300 300 300 300 299 299 300 300 300 299 299 299 299 299 299 299 299 299 299 299 299 299 299 300 300 300 301 301 301 301 300 299 299 299 298 298 297 298 299 299 299 299 299 298 297 296 296 296 296 296 297 297 297 298 298 298 298 297 297 298 298 298 298 298 298 299 299 299 300 300 300 301 301 301 301 301 301 301 301 301
297 297 297 298 299 299 299 299 299 299 299 299 299 299 299 299 299 299 299 299 299 299 299 299 299 299 299 299 299 299 300 301 301 301 301 300 299 298 298 298 297 297 297 297 298 298 298 299 298 297 296 296 296 295 295 295 295 296 296 296 296 296 296 296 296 297 297 298 298 298 298 298 298 297 297 297 298 298 298 299 299 299 299 300 300
297 297 298 298 299 299 299 299 299 299 299 298 298 299 299 299 299 299 299 299 299 299 299 298 298 298 298 298 298 298 299 300 300 300 301 301 300 298 298 297 297 297 297 297 297 297 297 298 298 297 296 296 296 296 296 295 295 295 295 295 295 295 295 295 295 295 296 296 296 296 296 296 296 296 296 296 296 296 296 296 297 297 297 298 298
296 297 298 298 298 298 298 299 299 299 298 298 298 299 299 300 299 299 299 299 299 299 299 298 298 298 298 298 298 298 298 299 299 299 300 300 300 300 299 298 297 297 297 297 297 297 297 297 298 298 297 297 296 296 296 296 296 296 296 295 295 295 295 295 295 295 295 295 295 295 294 294 295 295 294 294 294 295 295 295 295 295 296 296 296
Wind_Speed
9 10 10 10 9 10 8 7 7 7 8 11 12 12 13 14 13 12 11 10 12 13 14 14 15 14 14 15 16 15 14 13 14 14 14 15 15 15 14 14 14 17 19 19 18 18 18 17 15 15 15 15 15 15 15 16 18 17 16 16 15 14 12 11 11 11 10 8 7 7 7 6 7 8 8 8 7 6 6 6 6 5 5 7 7
12 14 13 12 12 10 8 6 5 4 5 7 7 5 7 9 9 8 7 6 8 10 12 14 15 15 14 15 16 14 13 13 14 14 15 16 17 16 14 13 13 16 18 21 21 19 19 20 19 19 18 15 14 14 14 14 17 17 17 16 16 15 13 13 14 13 11 10 9 8 7 6 7 8 10 9 9 8 8 8 7 6 6 7 8
13 13 14 14 12 9 8 6 4 3 2 1 2 2 1 2 2 3 4 6 8 9 10 11 12 12 12 13 14 13 12 13 13 13 14 15 16 16 16 15 15 16 18 20 21 20 20 21 21 21 20 16 13 13 14 14 15 17 18 17 15 15 13 14 16 14 11 10 10 7 6 6 6 9 11 10 10 9 9 9 8 8 8 8 9
12 13 13 14 13 11 11 10 10 10 10 10 9 7 5 4 4 3 5 6 6 7 8 8 7 7 8 9 10 11 11 12 12 12 14 16 15 15 17 16 16 18 19 20 21 20 21 22 22 23 22 19 16 14 14 14 14 16 17 16 15 15 13 13 15 15 12 9 8 6 5 5 5 7 10 9 10 9 9 10 9 10 10 9 10
13 13 12 14 15 14 15 15 15 14 14 13 11 10 9 8 7 5 5 5 4 4 5 5 5 5 5 6 7 9 9 10 11 13 14 15 16 17 18 17 17 19 19 22 23 22 22 22 23 25 24 21 18 16 15 15 14 15 15 15 15 13 11 12 13 15 14 11 9 5 3 5 4 5 8 8 10 10 9 11 10 10 11 11 12
12 12 13 14 15 15 16 17 16 15 15 13 11 12 11 9 9 8 7 5 4 3 3 3 3 5 5 6 8 9 10 10 11 11 11 12 14 15 16 16 17 18 19 22 23 23 23 23 24 24 24 21 18 16 16 16 16 16 16 15 15 13 10 10 12 14 15 14 12 6 2 4 3 4 6 5 8 9 8 10 10 11 12 12 12
11 13 14 16 17 17 18 19 17 17 16 14 13 13 12 11 10 10 9 7 5 4 3 2 3 5 5 6 8 10 11 11 10 10 9 10 12 13 15 16 17 18 19 20 23 24 23 24 24 22 22 20 16 17 18 18 17 16 17 16 15 16 14 12 11 13 14 15 13 9 6 5 4 4 5 3 6 7 7 9 10 12 13 13 13
11 12 14 16 17 18 18 19 18 17 17 16 15 14 14 13 12 11 9 8 6 6 5 3 4 5 6 6 7 8 10 10 10 9 9 10 11 13 15 15 16 18 20 21 24 24 22 23 24 23 22 20 17 18 20 19 17 16 18 17 16 17 17 15 14 13 14 15 15 13 10 8 7 6 6 4 4 5 7 9 10 12 12 12 12
12 12 13 15 16 17 17 18 18 17 17 17 16 15 15 14 14 12 10 9 8 7 6 4 4 5 6 7 8 7 8 9 8 8 8 9 11 12 12 13 15 18 21 21 22 23 23 22 22 23 23 21 19 20 20 19 18 18 19 18 17 17 18 20 19 17 17 16 15 15 13 11 10 9 7 6 6 5 6 8 10 12 12 13 13
11 12 13 15 16 17 16 17 18 17 17 16 15 16 16 15 15 14 13 12 11 9 7 5 5 6 7 8 8 8 8 9 9 9 9 9 11 11 10 11 13 16 18 18 18 20 22 21 20 19 19 21 22 20 18 18 19 19 20 18 18 19 20 23 23 20 19 18 16 15 14 13 11 10 9 8 8 7 5 7 12 13 11 12 13
10 11 13 15 16 16 16 17 18 18 17 17 16 15 15 15 15 15 15 14 12 11 10 8 6 6 8 10 10 9 8 8 9 11 11 10 11 11 10 10 10 12 14 15 15 17 19 19 19 16 15 19 21 19 19 19 17 17 18 17 18 22 22 22 21 20 18 18 17 15 14 13 12 11 10 10 9 7 6 6 11 12 11 12 13
10 10 12 14 16 17 18 18 18 19 19 18 17 16 15 15 16 16 16 15 13 12 10 9 8 7 8 9 9 9 8 8 9 11 12 11 11 11 9 9 9 10 11 12 14 16 17 17 17 15 16 20 23 21 20 19 17 16 17 17 18 21 22 20 20 20 18 18 17 14 14 14 13 12 10 9 9 8 7 6 8 10 10 10 12
10 10 10 13 15 17 18 18 18 19 20 19 18 17 16 16 17 17 17 16 14 12 11 9 8 8 8 7 7 7 7 8 10 11 12 12 11 10 8 8 10 11 12 12 13 14 15 16 17 17 19 23 24 22 20 21 21 18 16 18 18 20 23 22 20 19 18 19 17 15 15 14 14 12 10 9 9 9 9 7 8 10 9 9 10
10 10 10 12 14 16 16 17 17 18 19 19 19 18 17 16 17 18 17 16 15 13 12 10 9 9 8 7 6 7 8 9 10 11 11 11 11 9 8 9 10 11 13 14 12 11 13 16 17 17 21 24 23 21 21 21 21 19 17 19 19 19 22 22 20 18 17 18 18 16 16 15 15 14 11 10 10 10 9 8 8 9 9 9 10
9 9 10 13 15 16 16 16 16 17 18 18 19 19 18 17 17 17 16 15 15 14 12 12 10 9 9 8 7 7 8 10 10 10 11 11 10 10 9 10 10 10 12 13 12 11 12 14 16 18 18 19 21 22 22 22 21 21 21 20 19 19 20 20 19 19 18 19 19 16 15 15 15 14 13 13 12 11 10 10 10 8 7 8 8
8 8 10 12 14 15 15 15 15 16 16 17 18 18 18 17 17 17 16 16 16 14 12 12 11 10 9 9 8 9 10 11 10 10 11 11 11 10 10 11 11 11 11 12 12 12 12 12 15 18 17 16 20 23 23 23 22 21 21 20 19 20 20 19 19 19 18 19 19 16 15 15 15 15 15 14 13 12 11 11 12 10 8 7 7
8 8 9 11 13 14 14 14 15 15 16 15 15 16 16 16 16 16 17 18 17 15 13 12 11 10 10 10 10 11 12 12 12 12 12 12 11 10 11 12 12 11 11 11 12 13 14 13 14 18 20 19 20 21 20 21 20 20 20 18 17 19 20 20 20 19 19 19 19 18 17 15 14 15 15 15 13 12 12 12 13 13 10 7 6
8 8 9 11 13 13 14 14 14 14 14 14 14 14 14 14 15 16 17 18 17 16 15 14 13 12 11 12 12 12 12 12 11 12 12 12 12 11 11 12 12 11 11 11 11 13 15 15 15 17 20 21 21 20 18 18 19 20 20 18 16 17 20 21 20 19 18 17 17 18 18 17 16 16 17 17 15 13 13 13 13 13 12 10 7
7 8 9 11 13 14 15 14 15 14 14 14 13 14 15 15 15 16 17 17 17 16 15 14 14 13 13 14 14 13 13 12 11 10 11 11 12 12 12 13 12 12 12 12 12 14 15 15 15 16 19 21 22 21 19 17 19 20 21 21 19 18 20 20 18 18 17 16 17 17 17 18 18 18 19 19 19 18 16 15 14 13 13 12 10
8 7 8 11 13 14 15 14 14 14 14 14 14 14 16 17 17 18 18 18 18 17 16 16 15 15 15 15 15 14 13 12 12 11 11 11 11 11 12 13 13 13 13 13 13 14 15 15 15 16 17 20 21 22 20 18 18 19 19 20 21 20 20 20 20 18 17 17 17 17 17 18 18 18 18 18 19 20 17 15 14 14 13 12 11
8 8 9 11 12 13 14 14 14 14 14 14 14 15 17 18 19 20 20 20 19 18 17 17 16 16 17 17 16 15 14 13 13 12 12 11 11 11 11 12 14 14 14 14 13 13 14 14 15 15 16 19 21 22 20 18 18 19 18 18 19 19 19 20 21 21 20 18 17 18 18 19 21 20 19 18 18 18 17 15 14 14 14 13 12
8 8 9 12 13 13 14 14 14 14 14 15 14 15 17 18 19 19 20 21 19 18 18 18 17 18 18 18 17 16 15 15 15 13 12 12 11 11 11 11 13 14 15 15 15 14 14 14 15 16 17 18 20 20 19 18 20 20 19 18 19 20 20 21 22 23 24 21 18 18 18 19 22 23 22 19 17 17 16 16 15 14 14 14 13
8 9 11 12 13 13 13 14 14 14 14 15 16 16 17 19 19 19 20 20 19 19 18 18 18 19 19 18 18 17 16 16 16 15 14 13 13 12 12 12 12 13 14 16 16 15 14 14 15 16 17 18 19 19 18 19 20 21 21 21 21 21 20 21 23 23 23 21 18 18 19 21 23 24 22 19 17 17 17 16 16 15 14 14 14
8 10 12 13 13 14 13 14 14 14 14 15 16 16 17 18 18 18 18 19 19 18 18 18 18 19 18 19 19 18 17 17 17 16 16 15 14 13 13 13 13 13 14 15 15 15 15 15 16 16 17 18 19 19 19 19 21 21 22 22 21 22 21 23 26 24 20 22 22 20 21 23 23 22 21 19 17 17 17 16 16 16 15 14 13
8 10 12 13 14 15 14 14 14 13 14 15 16 16 16 17 18 17 17 18 18 18 18 18 18 19 19 20 20 20 19 19 18 17 17 16 15 15 14 14 14 14 15 15 15 15 15 16 17 17 19 20 20 19 20 21 22 21 21 21 21 21 21 24 28 25 22 24 24 22 23 24 23 22 20 18 18 18 18 17 17 16 16 15 14
10 10 11 12 13 14 14 14 14 14 15 15 16 16 16 16 17 17 16 17 17 17 17 18 18 19 19 20 21 21 21 21 20 19 18 17 16 15 14 14 14 15 16 16 15 15 16 17 17 18 20 21 21 20 20 21 22 22 21 22 22 21 20 23 26 23 22 22 20 21 24 23 21 21 20 19 19 19 18 18 17 16 16 16 15
9 10 9 10 12 13 14 14 14 14 15 15 15 15 15 15 16 16 16 16 17 17 17 17 18 18 19 20 21 21 21 22 21 20 19 18 17 16 15 14 14 14 15 15 14 15 16 17 17 19 20 19 19 20 20 21 22 22 21 22 24 23 21 23 25 23 21 21 18 19 23 24 22 21 20 20 19 19 19 18 17 17 16 16 15
9 9 10 10 11 12 13 14 14 14 14 14 14 14 15 15 15 16 16 16 17 18 17 17 18 18 19 20 21 21 21 22 22 21 20 19 18 17 17 16 14 14 15 15 14 15 16 18 18 19 19 18 18 18 19 21 22 22 22 23 24 23 22 22 23 22 20 19 17 18 21 22 21 20 20 20 18 18 18 18 18 18 17 16 16
10 10 10 10 10 11 12 13 13 14 14 14 14 14 15 15 15 16 16 16 16 17 18 18 18 19 20 20 21 21 21 22 22 22 22 20 19 19 18 17 16 15 14 14 15 16 16 19 19 18 18 20 19 19 19 21 22 22 23 23 23 22 22 22 22 20 19 17 16 18 20 19 19 19 21 21 19 18 17 16 16 17 18 18 17
10 9 9 9 10 11 11 12 13 14 14 14 15 15 15 16 16 16 16 16 16 17 18 18 18 19 20 20 21 21 22 22 23 23 23 22 21 20 19 19 19 17 15 13 15 16 16 18 18 17 18 19 20 20 20 21 23 23 23 24 23 22 23 23 21 19 17 15 16 17 18 18 19 19 19 20 20 19 18 16 15 15 16 15 16
9 9 8 9 10 11 11 12 13 13 14 14 15 15 16 16 16 17 17 17 17 18 18 18 18 20 20 21 22 22 22 23 23 24 24 23 23 21 20 20 20 19 19 16 14 15 16 17 18 17 17 18 20 20 20 23 25 26 26 25 24 24 23 21 19 17 16 15 16 16 15 16 19 19 18 18 18 18 19 19 17 15 14 14 15
9 9 8 9 10 11 12 12 13 13 14 15 15 15 16 17 17 17 17 17 18 18 19 19 19 20 21 22 22 23 23 23 24 24 24 24 24 23 22 22 20 21 21 19 17 16 15 17 18 18 17 18 20 21 20 23 27 30 30 27 25 23 21 19 18 18 17 15 14 15 14 14 15 17 17 17 18 19 19 19 19 17 17 17 16
9 9 9 9 10 11 12 12 13 13 14 14 14 15 16 17 17 18 18 18 18 19 19 19 19 20 21 22 23 23 23 24 24 24 24 24 24 24 24 23 21 21 21 20 19 18 16 15 16 17 17 18 20 20 20 22 25 30 32 29 25 22 20 19 18 17 17 15 14 15 15 13 14 17 16 15 17 19 18 19 19 18 19 19 18
9 9 10 10 10 11 11 12 12 13 13 14 14 15 16 16 17 18 18 18 19 19 19 19 20 21 21 22 23 23 24 24 24 24 24 24 24 24 24 22 21 21 21 20 20 20 18 15 13 13 14 16 18 20 22 24 25 28 31 31 27 20 17 18 17 16 16 15 15 16 15 13 15 18 15 13 15 17 17 17 15 13 13 14 16
9 9 10 11 11 11 11 12 13 13 13 14 14 15 16 16 17 18 19 18 19 19 20 20 21 21 22 22 22 23 24 24 24 23 23 24 24 24 23 22 21 20 20 19 18 19 19 17 14 12 11 11 15 20 23 26 26 27 28 29 26 20 17 18 18 17 16 15 15 16 17 17 16 17 16 15 15 14 14 13 11 9 9 10 13
9 10 11 11 11 12 12 12 13 13 13 14 14 14 15 16 17 18 19 19 19 20 20 21 21 21 21 22 22 22 23 23 23 23 24 24 24 24 23 21 20 19 18 18 17 17 18 17 15 12 10 9 12 17 21 24 24 25 26 25 22 20 20 21 19 18 17 16 15 14 16 18 17 16 17 17 15 13 12 12 12 10 9 10 12
11 11 11 11 11 12 12 12 13 13 14 14 14 14 15 16 17 18 19 20 20 20 20 21 21 21 21 21 21 21 22 23 23 24 24 23 23 23 22 21 20 20 19 18 17 16 17 17 16 13 10 9 10 13 16 20 22 24 25 24 21 20 22 23 21 19 17 17 16 13 12 14 15 16 17 16 15 14 13 13 13 11 9 8 7
11 11 11 11 11 12 12 12 13 14 14 14 14 14 14 16 17 17 18 19 20 21 21 20 20 20 21 21 21 21 22 22 23 23 23 23 22 22 22 21 20 20 20 19 18 17 17 16 17 16 13 9 8 9 11 15 20 22 23 23 21 21 23 23 21 20 18 19 20 18 14 12 14 17 17 15 15 14 12 13 13 13 12 12 11
10 10 11 11 11 11 12 13 13 14 14 14 14 14 14 15 16 17 18 19 20 21 21 21 20 19 19 20 21 21 22 22 22 22 21 21 21 21 21 20 20 20 20 19 19 19 18 17 17 17 15 13 10 7 6 9 15 20 22 22 21 21 23 23 21 19 18 18 18 18 16 15 17 18 16 16 16 14 12 13 14 14 14 14 14
10 10 10 10 10 11 12 12 13 13 13 13 13 13 14 15 16 17 18 18 19 19 20 20 20 20 20 20 20 21 22 22 22 21 20 19 19 19 19 19 19 20 20 19 19 20 20 20 19 19 18 18 16 12 7 4 9 16 19 20 21 19 19 20 20 18 17 16 15 14 13 15 17 18 17 18 17 15 14 14 14 14 16 17 16
10 9 9 9 9 10 11 11 12 12 12 13 13 13 14 15 16 17 18 18 18 18 18 19 19 20 21 21 21 21 21 21 21 21 20 20 19 19 19 18 18 18 19 19 19 20 21 20 21 23 23 22 19 16 13 7 4 11 14 17 18 16 17 20 20 17 17 17 15 13 13 16 19 20 19 18 16 16 16 16 16 16 18 21 21
9 8 8 7 8 9 10 11 12 12 13 13 13 14 15 15 16 17 17 17 17 17 18 18 18 19 20 21 21 21 21 20 20 20 20 20 20 19 20 19 18 17 18 18 19 21 21 21 22 25 27 27 25 20 18 15 10 12 13 13 14 15 17 20 21 19 17 17 15 14 14 17 20 21 20 18 16 16 16 15 15 17 20 23 24
9 8 8 7 8 9 10 11 11 12 13 13 14 15 15 16 17 16 16 16 16 17 17 17 18 19 19 19 20 21 21 21 21 20 20 20 20 19 20 21 20 19 19 18 18 20 23 23 23 24 25 28 30 27 23 21 19 18 17 15 15 15 16 18 20 20 18 17 17 15 14 15 18 19 18 15 13 13 14 14 16 19 22 22 20
9 9 8 8 8 9 9 10 10 11 12 13 14 15 15 16 16 15 15 15 16 16 17 17 18 18 19 19 19 20 21 21 22 21 21 21 21 19 19 20 21 21 20 19 18 19 22 23 23 22 22 24 28 29 28 28 27 27 26 23 21 20 18 19 22 23 22 21 20 18 16 14 15 15 14 13 13 14 16 19 21 22 21 16 13
9 8 7 7 8 9 9 9 10 10 11 12 13 14 15 15 15 15 15 15 15 15 16 17 17 17 17 18 18 18 19 20 21 21 22 22 22 21 20 20 20 21 21 20 20 19 19 21 21 21 21 21 23 25 28 31 33 34 34 32 30 28 26 26 28 28 26 25 24 22 20 19 18 16 15 16 18 21 22 24 23 21 17 13 11
8 7 6 6 7 8 8 9 9 9 10 10 11 13 14 14 14 15 15 15 15 15 16 16 17 17 17 17 18 17 17 18 19 20 21 21 22 22 21 19 20 21 21 21 21 20 19 18 19 19 20 20 21 22 25 29 32 35 37 36 35 34 33 32 31 30 27 27 27 26 26 25 24 22 21 21 22 21 21 20 18 17 16 15 13
7 6 5 5 6 7 7 8 9 9 9 9 10 11 13 14 14 15 15 15 15 16 16 16 16 17 17 17 17 16 16 17 18 19 19 20 21 21 21 21 20 20 20 21 21 21 20 19 18 18 20 21 22 23 26 28 29 32 34 34 34 33 31 31 30 28 26 26 26 27 28 28 27 26 25 24 22 20 17 15 14 14 14 14 13
6 5 4 5 6 7 7 8 8 8 9 9 9 10 11 12 14 15 15 15 15 15 16 15 16 17 17 17 17 16 16 16 16 16 16 18 19 19 19 20 20 20 19 19 20 21 21 21 19 18 19 21 23 25 26 25 25 26 27 27 28 27 26 26 25 23 23 22 22 23 25 26 26 26 25 24 23 21 19 16 15 15 15 15 13
6 6 6 6 6 7 7 8 8 8 9 9 10 10 10 11 13 14 15 15 14 15 15 15 15 16 17 17 17 17 17 16 16 14 12 12 16 19 18 17 18 20 20 19 18 18 19 20 19 18 18 19 21 22 22 20 19 20 21 21 22 22 21 21 19 17 17 18 19 20 21 21 21 22 22 22 21 20 19 17 15 15 14 14 14
6 7 7 7 7 7 8 8 8 8 9 10 11 11 10 10 12 14 15 15 15 15 15 15 15 16 17 17 17 18 17 16 16 15 12 9 11 17 20 18 18 19 20 20 18 17 17 17 16 16 17 18 18 17 17 16 17 17 17 18 19 19 18 17 16 15 16 17 18 20 20 18 17 17 17 17 16 16 16 15 14 13 12 11 12
7 8 8 8 8 8 8 8 8 8 9 10 11 11 10 10 11 12 13 15 15 15 15 15 15 15 15 16 17 18 18 17 16 16 15 11 9 11 16 18 19 20 20 20 19 17 16 17 15 14 13 14 14 14 13 13 14 14 13 14 14 13 13 13 12 13 14 16 16 16 14 13 14 14 12 11 11 12 13 14 13 13 12 12 13
Wind_Direction
85 82 84 94 101 105 114 124 141 157 169 182 182 176 174 176 185 193 195 201 199 195 194 195 200 206 213 222 226 225 221 223 232 236 236 238 236 233 234 236 241 242 239 230 225 229 231 227 222 215 210 209 207 204 202 201 198 191 187 190 192 195 194 192 189 183 178 175 183 192 196 207 208 213 214 209 204 187 187 202 203 208 202 189 186
65 67 73 82 89 91 96 110 128 148 174 190 195 191 179 182 195 201 207 229 232 218 206 200 199 199 204 216 224 226 224 226 233 236 236 240 240 238 238 240 243 242 242 240 233 229 230 231 226 217 214 212 207 203 198 198 199 191 185 189 193 194 191 190 186 183 184 186 192 191 193 207 212 219 219 208 202 191 190 203 204 208 210 197 195
59 57 58 65 72 74 76 79 69 60 85 100 31 16 125 175 213 230 252 266 260 249 232 217 210 206 208 216 225 230 233 236 241 245 246 250 252 248 246 245 243 240 239 240 239 232 228 230 229 222 217 213 204 197 194 193 194 191 191 193 192 191 192 191 190 193 198 193 196 202 197 200 206 217 218 208 205 198 194 203 207 209 212 209 205
60 56 50 48 48 47 47 44 40 41 41 40 33 24 24 16 357 321 313 309 284 263 249 238 230 227 229 231 236 241 243 247 252 256 255 257 259 257 256 253 251 250 244 239 240 239 233 231 231 226 218 211 205 197 193 191 191 191 193 194 191 190 192 190 191 202 208 195 199 208 193 203 213 205 202 199 199 195 195 204 208 209 209 213 212
52 50 43 40 40 40 38 34 37 40 37 35 30 23 23 20 12 359 351 343 316 283 261 253 250 249 248 246 250 252 255 257 257 257 257 258 258 260 261 256 251 252 248 243 241 241 240 235 231 229 220 211 206 203 198 193 193 193 192 192 191 193 193 187 188 203 210 206 218 228 180 210 231 184 178 185 190 192 197 202 207 211 208 211 212
48 43 38 37 35 36 37 35 35 36 32 27 24 23 22 24 21 18 16 5 342 314 289 280 279 273 262 252 250 252 254 253 255 261 264 261 258 259 260 252 248 253 251 247 243 241 242 237 232 230 223 215 207 202 199 196 196 196 196 194 193 196 193 188 190 199 207 213 228 250 219 228 251 182 176 181 184 192 200 199 207 213 209 211 212
45 40 36 35 31 30 33 34 32 30 27 22 20 20 19 20 18 18 20 14 5 349 332 330 312 298 286 269 257 256 259 263 271 280 277 270 264 260 260 256 254 256 253 250 248 246 244 237 231 229 224 217 211 206 203 203 202 196 198 197 195 197 192 193 199 195 201 212 223 234 221 235 260 213 205 198 179 191 200 197 205 209 207 210 212
42 39 34 31 29 27 27 29 29 27 26 24 21 18 16 17 15 16 18 12 7 2 355 346 324 313 304 292 280 273 275 282 285 281 273 272 269 263 266 268 263 262 260 258 256 250 244 240 235 230 226 220 213 214 210 208 205 198 198 197 197 200 195 198 205 197 203 210 212 219 220 228 236 219 227 238 205 195 193 196 202 202 204 208 210
43 40 35 30 28 27 25 26 27 26 25 24 23 20 18 16 15 17 17 12 8 7 8 354 324 315 311 302 294 290 288 292 290 278 270 268 268 264 266 270 269 270 268 263 257 248 241 243 237 225 220 215 211 214 213 212 211 206 203 200 196 198 199 206 208 204 210 210 203 208 213 217 218 213 223 230 229 223 194 188 191 191 201 209 208
46 43 38 34 31 29 27 26 26 25 24 24 25 24 22 18 15 17 17 16 13 11 8 354 328 317 317 312 306 300 291 293 296 287 277 268 269 269 264 265 268 269 268 261 252 245 240 242 238 223 208 206 211 213 212 214 216 214 211 205 198 197 202 212 213 209 212 211 202 200 204 208 209 208 212 213 224 237 222 192 187 190 198 201 201
48 45 42 37 35 32 29 28 25 23 21 22 23 22 23 20 17 18 18 17 16 13 8 358 348 331 323 318 315 312 300 295 295 291 287 278 272 270 265 266 263 258 257 252 243 240 239 238 237 229 208 205 211 211 210 213 216 216 215 208 201 201 205 213 216 214 213 213 207 201 203 206 207 209 209 209 214 225 226 202 190 196 203 196 194
48 45 41 35 33 30 28 26 22 20 18 16 17 18 20 19 16 17 16 14 13 12 8 0 353 342 331 323 316 311 298 289 286 285 286 281 273 267 267 271 262 248 242 238 229 226 231 229 223 216 204 207 214 215 213 216 220 220 217 212 205 204 207 212 217 216 215 218 213 204 206 208 209 213 212 210 215 218 218 209 190 194 204 195 184
44 42 39 33 30 26 24 21 17 17 15 13 13 14 15 16 16 17 15 12 9 7 7 2 350 339 330 324 316 305 291 283 282 280 281 281 276 266 260 261 257 247 239 238 229 219 222 223 217 208 201 207 214 212 211 217 223 223 219 216 210 205 207 211 218 217 214 218 214 205 207 210 210 212 211 210 215 217 216 211 193 190 198 190 174
42 39 36 31 28 24 20 17 14 13 11 10 11 10 11 12 13 14 13 12 10 6 4 2 356 345 333 324 315 303 291 281 277 278 276 276 274 265 254 251 249 243 241 245 242 229 226 225 219 210 207 211 209 203 204 214 222 225 222 219 216 213 210 211 218 218 213 217 215 205 204 209 211 209 207 209 212 214 214 207 190 186 197 192 176
44 41 35 30 26 22 19 16 12 9 7 7 7 5 5 5 6 7 7 8 10 9 5 1 358 351 344 337 323 304 292 283 276 275 272 268 266 261 254 250 249 246 243 247 248 243 237 229 219 211 210 211 205 200 204 212 220 224 223 222 221 219 213 211 218 219 215 218 218 211 205 208 211 209 207 211 214 212 212 206 192 184 195 195 183
46 42 38 33 26 21 18 15 11 7 5 5 5 3 0 358 0 2 2 3 5 6 4 359 356 352 347 341 328 310 298 291 284 280 277 271 266 260 255 252 252 252 250 248 248 244 239 231 222 215 211 207 205 205 207 212 218 221 221 219 217 217 214 213 219 218 216 219 217 210 208 209 210 210 210 212 215 214 212 207 199 196 196 193 189
49 45 42 36 29 23 19 14 12 8 6 4 4 4 2 359 359 359 0 2 3 2 359 355 352 350 347 340 330 318 308 302 297 292 288 282 274 267 262 256 253 254 253 249 245 241 236 231 225 221 219 216 212 210 208 210 215 219 220 217 213 213 212 213 218 216 217 222 218 210 209 211 211 211 211 212 215 217 214 207 203 207 208 198 196
50 46 40 35 30 25 21 17 15 12 9 7 6 7 7 5 4 3 4 4 2 360 358 355 351 348 345 340 332 324 318 311 302 295 291 286 281 274 265 259 255 253 250 246 240 238 236 234 229 224 222 221 217 214 211 211 214 217 218 218 216 214 213 215 218 216 215 219 220 215 210 210 214 214 214 213 212 213 215 210 207 211 215 215 211
47 42 34 31 28 24 22 19 17 15 12 9 8 8 7 5 6 9 9 8 5 3 1 358 355 350 345 338 332 327 323 319 310 300 291 285 281 277 270 264 259 254 250 246 239 235 236 235 231 226 223 223 221 217 214 213 214 215 215 216 216 215 216 217 217 215 214 212 214 218 214 213 216 215 214 213 209 211 215 211 208 211 216 221 224
42 38 33 31 29 27 24 19 17 15 12 9 7 6 5 4 5 7 9 10 10 8 4 359 356 351 346 340 334 329 324 321 317 309 295 284 278 277 275 270 262 257 254 251 245 240 239 236 231 226 222 221 221 219 216 213 215 215 214 213 214 214 216 217 215 212 214 212 210 213 213 213 214 212 213 214 210 211 214 211 209 210 212 214 222
42 38 35 32 31 29 25 20 19 16 13 10 8 9 8 7 7 7 8 9 10 8 5 1 356 351 347 343 337 331 328 325 321 316 306 296 287 279 277 275 268 261 257 254 251 247 245 239 232 227 221 218 219 219 216 213 214 216 215 214 214 214 215 218 216 211 212 212 209 210 209 209 211 210 212 213 210 210 210 209 210 210 209 208 212
47 42 38 35 34 30 25 23 22 18 16 13 12 14 13 11 10 10 9 9 7 5 4 2 357 353 350 347 341 335 331 329 327 322 315 310 304 292 282 277 272 266 259 255 251 248 245 240 234 228 222 217 215 215 214 214 214 214 214 215 215 213 212 217 219 215 213 211 209 208 205 205 208 209 212 213 211 210 208 208 210 209 208 208 206
54 49 45 41 37 33 29 26 23 22 20 15 14 15 14 13 11 11 10 8 6 4 2 1 357 355 354 351 347 341 337 335 333 328 323 319 315 305 293 282 273 269 264 259 255 252 247 241 235 230 223 217 214 211 211 213 213 213 214 215 215 210 206 210 218 218 213 211 210 207 204 203 204 207 213 215 211 212 212 210 211 211 208 209 207
56 54 50 47 42 37 33 29 26 25 21 16 15 14 14 14 11 10 9 7 5 3 1 360 357 355 356 354 351 347 343 341 338 333 329 325 319 312 305 293 281 274 267 263 260 256 252 244 237 232 225 219 215 211 208 209 211 214 216 216 215 210 204 207 215 217 214 211 208 204 205 204 201 204 212 213 211 213 214 213 212 211 209 208 206
52 52 50 47 44 39 34 32 29 24 16 14 16 15 14 13 10 7 5 5 4 2 1 0 357 356 357 356 354 351 348 345 341 337 334 331 327 320 312 303 294 283 271 265 261 256 254 249 240 233 227 222 216 213 211 209 211 214 215 217 215 208 205 210 214 217 218 213 205 202 207 205 200 203 208 209 211 212 212 214 212 210 210 207 206
49 50 48 47 45 42 38 34 29 22 17 16 16 15 13 11 8 6 4 5 5 2 1 1 359 358 358 357 356 353 351 348 344 341 337 334 332 325 315 306 298 288 276 269 264 257 255 253 246 238 231 225 219 215 212 209 210 213 213 216 214 206 206 212 212 216 222 216 204 201 207 205 201 203 205 206 210 211 211 213 212 211 211 206 204
54 51 48 48 47 45 41 34 27 21 18 16 14 11 9 5 4 3 3 5 4 1 1 1 0 360 359 357 356 354 352 349 346 343 340 337 336 331 322 311 300 292 282 274 269 262 258 255 251 245 238 230 222 216 212 209 210 211 210 213 212 207 207 209 208 214 223 218 210 209 210 209 207 205 205 206 207 208 210 211 211 212 213 206 202
60 53 49 50 47 43 38 32 26 20 15 14 12 9 6 2 1 0 0 2 3 3 2 1 1 1 360 358 356 354 352 350 348 345 342 341 340 338 333 323 311 299 288 279 274 268 261 257 254 249 245 239 230 222 214 209 209 211 210 211 210 207 205 206 208 216 221 215 213 215 213 212 210 207 208 209 207 207 209 210 210 211 211 206 203
63 57 54 51 45 42 37 31 28 22 16 14 11 8 5 2 1 1 360 1 3 6 6 5 4 3 1 358 357 355 353 351 350 349 348 346 343 342 340 335 329 317 300 285 279 275 267 262 257 253 249 242 237 232 220 209 208 211 210 209 207 204 201 202 206 212 213 211 213 215 215 215 216 214 212 210 209 209 207 211 215 212 211 209 204
63 60 59 51 45 43 37 32 29 22 19 16 12 10 7 3 1 0 0 0 3 8 8 7 7 5 2 360 359 358 356 354 353 352 351 350 347 345 342 341 340 334 323 304 288 280 275 269 263 259 254 245 238 237 229 217 211 209 209 208 206 204 202 203 205 208 208 208 210 211 215 220 222 221 218 214 214 213 210 215 223 217 214 214 211
67 63 60 52 46 43 36 33 28 22 20 16 13 13 11 7 4 359 359 1 4 8 9 9 9 6 4 3 2 1 360 358 357 355 354 353 351 349 346 343 344 343 338 330 312 294 281 273 266 261 257 248 240 238 236 230 222 217 216 214 211 208 205 204 205 204 204 205 203 202 208 218 221 221 220 217 216 216 215 221 227 221 218 218 218
73 67 61 54 48 41 35 32 28 24 23 19 17 16 14 13 10 5 3 5 8 11 11 11 11 8 7 6 4 4 3 2 1 359 356 355 353 353 351 348 347 346 345 342 334 316 295 281 272 265 262 255 245 237 236 239 235 229 224 219 215 211 203 200 203 202 201 203 199 197 201 209 213 210 210 212 213 215 214 218 223 220 219 220 223
76 68 62 56 50 44 38 35 31 28 26 22 21 20 17 16 15 12 11 11 13 14 13 13 13 10 9 8 6 6 6 5 4 2 360 359 357 356 356 352 350 348 346 346 342 332 315 300 285 272 266 260 250 238 234 239 239 235 230 222 216 212 202 198 199 198 201 202 199 199 197 196 200 200 198 202 208 212 212 214 217 218 220 224 225
77 70 65 58 53 49 43 39 35 31 29 26 25 24 21 19 18 17 17 16 17 17 16 15 13 12 11 10 8 9 9 7 6 4 3 2 1 359 358 355 353 351 349 349 348 342 331 319 306 288 272 261 250 241 239 239 236 234 232 224 219 216 204 196 194 193 197 198 198 197 190 186 194 195 190 189 199 207 211 210 212 213 218 224 223
77 71 66 59 54 50 46 42 37 32 29 28 26 24 23 22 22 21 21 21 20 20 19 17 15 14 13 11 10 11 11 9 7 6 7 6 4 2 360 359 357 355 353 350 350 351 345 332 320 309 293 270 252 243 244 244 237 233 232 226 221 215 197 188 189 190 190 192 194 197 196 193 190 186 186 189 191 195 198 195 193 189 191 206 213
78 71 65 61 55 52 49 43 38 33 31 28 25 24 24 24 24 24 24 23 23 22 21 19 17 17 15 13 13 13 13 13 11 11 10 9 8 6 3 1 1 360 358 355 353 356 355 347 336 323 309 294 270 252 249 248 240 233 228 223 221 213 192 183 184 183 186 192 195 203 205 195 182 180 191 197 192 182 176 173 173 172 177 197 212
83 76 71 67 61 58 55 47 41 37 32 30 27 25 27 27 27 27 27 26 26 24 22 21 20 19 18 17 16 16 16 17 17 17 16 13 11 10 8 7 6 5 3 1 359 359 359 359 357 348 333 318 299 276 260 249 240 232 221 212 215 212 191 182 182 179 179 185 187 197 200 183 177 187 195 198 193 181 170 164 160 152 148 161 178
87 82 77 72 65 61 57 51 46 40 34 32 30 27 29 29 28 29 28 28 28 27 24 22 20 18 17 15 15 15 15 16 17 19 20 19 18 16 13 13 13 11 9 6 5 6 6 7 7 6 3 352 328 308 281 251 234 224 210 200 206 208 191 180 180 177 173 177 182 186 182 172 183 193 189 186 186 179 168 162 155 143 133 130 132
85 82 78 74 67 62 56 49 45 40 34 32 32 31 32 31 29 29 28 28 28 26 25 24 22 19 17 14 13 13 13 14 15 15 16 18 20 20 18 18 18 18 16 15 13 13 14 15 14 13 17 19 13 1 318 263 225 207 197 192 199 201 186 175 174 172 168 172 176 175 171 173 185 187 177 174 175 168 161 159 153 145 135 128 128
83 82 81 77 68 59 52 46 42 37 33 32 34 35 35 33 31 30 28 27 25 24 24 24 24 23 22 19 16 14 14 15 16 15 14 14 16 17 18 19 20 20 20 21 21 21 21 22 21 21 26 28 29 35 27 313 216 191 185 188 191 187 171 161 160 157 152 153 161 166 165 169 173 169 165 167 168 165 163 159 152 145 138 135 137
86 83 82 78 67 57 52 47 42 38 35 35 36 36 36 34 32 30 28 26 23 23 23 23 23 24 24 23 21 18 16 15 15 16 17 17 17 16 16 18 20 21 22 23 24 25 25 26 27 29 35 38 38 45 50 46 160 167 164 169 168 160 151 146 141 138 136 138 149 155 151 153 158 158 159 162 163 164 163 157 153 154 153 153 151
92 86 80 74 66 59 54 49 45 41 39 38 37 37 35 33 31 29 26 23 22 22 22 21 22 22 23 24 23 22 20 18 15 15 17 18 19 19 18 19 19 20 22 23 24 26 26 26 28 32 38 43 46 51 56 59 90 129 137 140 135 131 139 140 131 123 122 127 138 142 140 147 153 154 155 154 154 158 160 159 164 167 161 154 146
93 85 77 72 67 64 58 52 48 44 42 41 41 38 35 32 31 27 23 22 21 21 21 21 20 20 21 22 23 24 24 22 20 19 19 18 18 18 19 21 21 20 21 20 21 24 25 25 26 29 34 42 49 55 59 62 78 97 104 106 109 114 126 129 119 111 109 115 124 129 133 144 152 153 155 158 160 161 161 160 162 157 147 139 133
90 81 76 72 68 66 63 56 50 45 43 42 41 38 35 32 29 24 20 21 19 18 19 20 19 20 20 20 22 23 24 24 22 23 23 22 20 19 19 21 23 23 23 22 20 23 25 25 26 27 29 38 49 58 63 66 73 84 90 94 99 102 108 111 106 101 101 105 109 113 119 130 140 144 147 150 147 144 140 138 138 136 131 127 127
91 82 75 73 70 68 64 58 51 44 42 40 38 37 36 32 27 23 21 20 17 16 17 17 17 18 18 18 20 22 24 25 24 24 26 24 21 21 20 20 22 24 26 26 24 24 27 29 29 28 28 32 42 52 61 65 69 77 84 89 91 92 95 98 96 95 97 101 104 106 109 111 115 119 124 124 123 124 127 129 130 126 118 112 113
89 78 70 70 72 70 64 58 50 42 39 39 36 36 36 32 26 23 23 22 19 17 17 17 17 17 16 18 19 19 21 25 25 24 26 25 24 24 23 20 20 23 26 29 28 28 29 30 32 31 30 31 36 45 56 64 68 73 79 84 87 88 89 91 91 90 92 95 99 103 105 105 106 109 112 113 113 117 122 125 127 126 120 112 106
81 68 64 66 67 66 60 53 46 38 35 36 33 32 34 31 26 23 22 21 21 19 18 19 19 17 15 16 17 14 16 23 25 24 24 25 25 26 27 26 22 20 21 26 29 31 33 35 37 38 37 38 40 43 49 57 64 71 75 78 81 82 83 84 85 84 83 84 87 91 94 97 100 103 105 108 111 114 116 115 115 118 118 114 111
73 59 59 63 63 62 58 52 46 38 35 35 31 29 29 27 25 23 21 21 21 20 19 20 20 20 18 17 17 15 14 19 22 22 24 25 25 27 31 30 25 19 17 20 25 29 32 36 41 41 40 42 44 45 47 51 59 66 71 73 74 74 74 74 75 77 80 81 83 86 88 90 93 95 95 96 98 101 102 99 97 100 103 106 107
72 65 68 71 68 65 59 54 47 39 36 34 29 26 26 26 25 24 22 22 21 20 20 21 22 22 20 17 18 19 17 16 17 19 25 30 30 32 35 33 27 22 19 20 24 25 24 30 40 44 43 44 45 47 50 53 56 62 66 68 69 69 68 67 69 75 82 83 81 80 80 81 84 87 87 86 88 90 90 89 86 85 88 94 101
76 77 79 77 72 66 60 53 47 39 35 32 27 26 28 27 26 26 25 23 22 21 20 21 22 23 20 18 18 19 18 16 14 15 19 31 39 39 38 36 31 25 19 18 23 25 22 26 37 44 46 48 51 52 54 55 56 60 64 67 70 70 68 67 68 73 79 79 77 76 73 72 76 81 83 85 88 91 93 91 87 83 83 88 96
79 78 77 75 71 66 59 51 45 37 33 31 29 30 31 29 26 26 26 25 24 23 21 19 21 24 21 17 18 19 18 16 15 13 12 16 32 42 40 37 34 31 25 19 19 23 24 26 32 37 40 45 51 54 53 52 53 56 61 65 67 65 63 64 65 68 73 76 78 79 77 75 81 85 86 89 95 100 103 103 102 100 100 101 103